Hourly Data Report for June 23, 2006

TORONTO CITY
ONTARIO

43°40'00.000" N
79°24'00.000" W
112.50 m
6158355
71508
XTO

Download Data

Hourly Data (June 2006)
Hourly Data Report for June 23, 2006
TIME
LST
Temp Definition
°C
Dew Point Definition
°C
Rel Hum Definition
%
Precip. Amount Definition
mm

Wind Dir Definition
10's deg

Wind Spd Definition
km/h
Visibility Definition
km
Stn Press Definition
kPa
Hmdx Definition


Wind Chill Definition


Weather Definition


00:00 22.8 15.1 62   LegendMM LegendMM   100.22 27   LegendNANA
01:00 22.2 15.1 64   LegendMM LegendMM   100.23 26   LegendNANA
02:00 21.0 15.4 70   LegendMM LegendMM   100.23 25   LegendNANA
03:00 20.9 15.5 71   LegendMM LegendMM   100.29 25   LegendNANA
04:00 19.8 14.5 71   LegendMM LegendMM   100.29     LegendNANA
05:00 19.0 14.7 76   LegendMM LegendMM   100.36     LegendNANA
06:00 19.0 14.9 77   LegendMM LegendMM   100.37     LegendNANA
07:00 19.3 15.2 77   LegendMM LegendMM   100.47     LegendNANA
08:00 20.0 15.6 76   LegendMM LegendMM   100.50     LegendNANA
09:00 20.6 16.1 75   LegendMM LegendMM   100.50 25   LegendNANA
10:00 22.8 16.9 69   LegendMM LegendMM   100.54 28   LegendNANA
11:00 22.9 16.4 67   LegendMM LegendMM   100.54 28   LegendNANA
12:00 22.4 16.5 69   LegendMM LegendMM   100.54 27   LegendNANA
13:00 22.1 16.4 70   LegendMM LegendMM   100.52 27   LegendNANA
14:00 22.1 16.5 71   LegendMM LegendMM   100.49 27   LegendNANA
15:00 22.4 16.2 68   LegendMM LegendMM   100.43 27   LegendNANA
16:00 21.8 16.0 70   LegendMM LegendMM   100.38 26   LegendNANA
17:00 21.6 16.3 72   LegendMM LegendMM   100.37 26   LegendNANA
18:00 20.3 16.1 77   LegendMM LegendMM   100.38 25   LegendNANA
19:00 19.9 16.1 79   LegendMM LegendMM   100.41     LegendNANA
20:00 20.4 15.6 74   LegendMM LegendMM   100.43 25   LegendNANA
21:00 20.3 15.5 74   LegendMM LegendMM   100.47 25   LegendNANA
22:00 19.8 15.3 75   LegendMM LegendMM   100.47     LegendNANA
23:00 19.1 12.6 66   LegendMM LegendMM   100.49     LegendNANA

Notes on Data Quality.

Legend

  • E = Estimated
  • M = Missing
  • NA = Not Available*
  • [empty] = Indicates an unobserved value
Date modified: